| time (UTC) | temp C | wind direction | speed KPH | gust KPH | rain 1hr cm | rain 24hr cm | rain mn cm | humidity % | barometer mb |
| 20260503185840 | 12 | 307 | 20.9 | 37.0 | 0.00 | 0.00 | 0.00 | 64 | 1014.2 |
| 20260503185333 | 12 | 315 | 17.7 | 37.0 | 0.00 | 0.00 | 0.00 | 63 | 1014.1 |
| 20260503184842 | 13 | 314 | 24.1 | 37.0 | 0.00 | 0.00 | 0.00 | 59 | 1013.9 |
| 20260503184333 | 14 | 288 | 22.5 | 37.0 | 0.00 | 0.00 | 0.00 | 55 | 1013.7 |
| 20260503183842 | 14 | 290 | 17.7 | 32.2 | 0.00 | 0.00 | 0.00 | 56 | 1013.5 |
| 20260503183350 | 15 | 299 | 14.5 | 32.2 | 0.00 | 0.00 | 0.00 | 55 | 1013.6 |
| 20260503182836 | 14 | 292 | 11.3 | 27.4 | 0.00 | 0.00 | 0.00 | 53 | 1013.4 |
| 20260503182348 | 14 | 280 | 19.3 | 27.4 | 0.00 | 0.00 | 0.00 | 53 | 1013.4 |
| 20260503181902 | 14 | 275 | 19.3 | 29.0 | 0.00 | 0.00 | 0.00 | 53 | 1013.5 |
| 20260503181333 | 15 | 253 | 16.1 | 27.4 | 0.00 | 0.00 | 0.00 | 53 | 1013.5 |
| 20260503180841 | 15 | 301 | 12.9 | 27.4 | 0.00 | 0.00 | 0.00 | 53 | 1013.4 |
| 20260503180333 | 15 | 286 | 12.9 | 29.0 | 0.00 | 0.00 | 0.00 | 54 | 1013.7 |
| 20260503175831 | 15 | 255 | 14.5 | 30.6 | 0.00 | 0.00 | 0.00 | 52 | 1013.8 |
| 20260503175341 | 15 | 276 | 16.1 | 35.4 | 0.00 | 0.00 | 0.00 | 52 | 1013.8 |
| 20260503174901 | 15 | 271 | 14.5 | 35.4 | 0.00 | 0.00 | 0.00 | 52 | 1014.0 |
| 20260503174332 | 15 | 292 | 16.1 | 32.2 | 0.00 | 0.00 | 0.00 | 52 | 1014.1 |
| 20260503173837 | 15 | 273 | 16.1 | 30.6 | 0.00 | 0.00 | 0.00 | 52 | 1014.3 |
| 20260503173348 | 15 | 260 | 19.3 | 30.6 | 0.00 | 0.00 | 0.00 | 52 | 1014.2 |
| 20260503172900 | 15 | 225 | 16.1 | 30.6 | 0.00 | 0.00 | 0.00 | 50 | 1014.2 |
| 20260503172329 | 15 | 254 | 17.7 | 41.8 | 0.00 | 0.00 | 0.00 | 51 | 1014.4 |
| 20260503171833 | 15 | 234 | 19.3 | 41.8 | 0.00 | 0.00 | 0.00 | 51 | 1014.4 |
| 20260503171324 | 15 | 267 | 22.5 | 37.0 | 0.00 | 0.00 | 0.00 | 50 | 1014.5 |
| 20260503170904 | 15 | 269 | 16.1 | 29.0 | 0.00 | 0.00 | 0.00 | 50 | 1014.5 |
| 20260503170353 | 15 | 240 | 16.1 | 33.8 | 0.00 | 0.00 | 0.00 | 51 | 1014.7 |
| 20260503150834 | 13 | 271 | 14.5 | 29.0 | 0.00 | 0.00 | 0.00 | 53 | 1015.8 |
| 20260503150326 | 13 | 279 | 14.5 | 30.6 | 0.00 | 0.00 | 0.00 | 53 | 1015.8 |
| 20260503131330 | 9 | 288 | 9.7 | 20.9 | 0.00 | 0.00 | 0.00 | 64 | 1016.3 |
| 20260503130839 | 9 | 273 | 9.7 | 19.3 | 0.00 | 0.00 | 0.00 | 65 | 1016.3 |
| 20260503130330 | 8 | 278 | 8.0 | 17.7 | 0.00 | 0.00 | 0.00 | 64 | 1016.4 |
| 20260503110330 | 3 | 252 | 3.2 | 8.0 | 0.00 | 0.00 | 0.00 | 76 | 1015.9 |
| 20260503090350 | 3 | 239 | 3.2 | 6.4 | 0.00 | 0.00 | 0.00 | 74 | 1016.0 |
| 20260503081353 | 4 | 246 | 0.0 | 1.6 | 0.00 | 0.00 | 0.00 | 72 | 1015.9 |
| 20260503080829 | 4 | 246 | 0.0 | 8.0 | 0.00 | 0.00 | 0.00 | 72 | 1015.8 |
| 20260503080342 | 4 | 246 | 3.2 | 8.0 | 0.00 | 0.00 | 0.00 | 72 | 1015.8 |
| 20260503072838 | 3 | 254 | 0.0 | 4.8 | 0.00 | 0.00 | 0.00 | 71 | 1016.0 |
| 20260503072350 | 3 | 252 | 0.0 | 4.8 | 0.00 | 0.00 | 0.00 | 71 | 1016.0 |
| 20260503071858 | 3 | 255 | 0.0 | 1.6 | 0.00 | 0.00 | 0.00 | 72 | 1016.1 |
| 20260503071329 | 3 | 255 | 0.0 | 3.2 | 0.00 | 0.00 | 0.00 | 72 | 1016.1 |
| 20260503070833 | 3 | 256 | 0.0 | 0.0 | 0.00 | 0.00 | 0.00 | 72 | 1016.1 |
| 20260503070327 | 3 | 256 | 0.0 | 6.4 | 0.00 | 0.00 | 0.00 | 72 | 1016.1 |
| 20260503060327 | 3 | 24 | 0.0 | 0.0 | 0.00 | 0.00 | 0.00 | 73 | 1016.6 |
| 20260503054839 | 3 | 24 | 0.0 | 1.6 | 0.00 | 0.00 | 0.00 | 73 | 1016.5 |
| 20260503054332 | 3 | 24 | 0.0 | 0.0 | 0.00 | 0.00 | 0.00 | 73 | 1016.7 |
| 20260503053837 | 3 | 24 | 0.0 | 0.0 | 0.00 | 0.00 | 0.00 | 73 | 1016.7 |
| 20260503053351 | 3 | 24 | 0.0 | 0.0 | 0.00 | 0.00 | 0.00 | 73 | 1016.8 |
| 20260503052856 | 3 | 24 | 0.0 | 0.0 | 0.00 | 0.00 | 0.00 | 75 | 1016.8 |
| 20260503052347 | 3 | 24 | 0.0 | 0.0 | 0.00 | 0.00 | 0.00 | 74 | 1016.9 |
| 20260503051834 | 3 | 24 | 0.0 | 0.0 | 0.00 | 0.00 | 0.00 | 75 | 1016.9 |
| 20260503051326 | 3 | 25 | 0.0 | 0.0 | 0.00 | 0.00 | 0.00 | 75 | 1017.0 |
| 20260503050835 | 3 | 25 | 0.0 | 3.2 | 0.00 | 0.00 | 0.00 | 75 | 1016.9 |
| 20260503050344 | 3 | 24 | 1.6 | 3.2 | 0.00 | 0.00 | 0.00 | 74 | 1017.1 |
| 20260503045837 | 3 | 24 | 0.0 | 4.8 | 0.00 | 0.00 | 0.00 | 74 | 1017.1 |
| 20260503045331 | 3 | 24 | 1.6 | 6.4 | 0.00 | 0.00 | 0.00 | 75 | 1017.0 |
| 20260503044840 | 3 | 24 | 1.6 | 6.4 | 0.00 | 0.00 | 0.00 | 74 | 1017.0 |
| 20260503044352 | 3 | 24 | 0.0 | 0.0 | 0.00 | 0.00 | 0.00 | 75 | 1016.9 |
| 20260503043833 | 3 | 24 | 0.0 | 1.6 | 0.00 | 0.00 | 0.00 | 74 | 1017.0 |
| 20260503043347 | 3 | 24 | 0.0 | 1.6 | 0.00 | 0.00 | 0.00 | 75 | 1017.0 |
| 20260503042826 | 2 | 25 | 0.0 | 0.0 | 0.00 | 0.00 | 0.00 | 75 | 1017.0 |
| 20260503042334 | 2 | 25 | 0.0 | 0.0 | 0.00 | 0.00 | 0.00 | 76 | 1017.0 |
| 20260503041842 | 2 | 25 | 0.0 | 0.0 | 0.00 | 0.00 | 0.00 | 77 | 1016.9 |
| 20260503041334 | 2 | 25 | 0.0 | 0.0 | 0.00 | 0.00 | 0.00 | 78 | 1017.0 |
| 20260503040840 | 2 | 25 | 0.0 | 0.0 | 0.00 | 0.00 | 0.00 | 78 | 1017.0 |
| 20260503040353 | 2 | 25 | 0.0 | 0.0 | 0.00 | 0.00 | 0.00 | 78 | 1017.0 |
| 20260503035836 | 2 | 26 | 0.0 | 0.0 | 0.00 | 0.00 | 0.00 | 77 | 1017.0 |
| 20260503035327 | 2 | 26 | 0.0 | 0.0 | 0.00 | 0.00 | 0.00 | 77 | 1017.0 |
| 20260503034832 | 2 | 26 | 0.0 | 0.0 | 0.00 | 0.00 | 0.00 | 77 | 1017.0 |
| 20260503034326 | 2 | 26 | 0.0 | 0.0 | 0.00 | 0.00 | 0.00 | 78 | 1017.0 |
| 20260503033833 | 2 | 26 | 0.0 | 0.0 | 0.00 | 0.00 | 0.00 | 78 | 1016.8 |
| 20260503033346 | 2 | 26 | 0.0 | 0.0 | 0.00 | 0.00 | 0.00 | 80 | 1016.9 |
| 20260503032826 | 2 | 26 | 0.0 | 0.0 | 0.00 | 0.00 | 0.00 | 80 | 1016.9 |
| 20260503032412 | 2 | 26 | 0.0 | 0.0 | 0.00 | 0.00 | 0.00 | 79 | 1016.8 |
| 20260503031858 | 3 | 26 | 0.0 | 0.0 | 0.00 | 0.00 | 0.00 | 79 | 1017.0 |
| 20260503031330 | 3 | 26 | 0.0 | 0.0 | 0.00 | 0.00 | 0.00 | 78 | 1017.0 |
| 20260503030835 | 3 | 26 | 0.0 | 0.0 | 0.00 | 0.00 | 0.00 | 78 | 1017.0 |
| 20260503030348 | 3 | 26 | 0.0 | 0.0 | 0.00 | 0.00 | 0.00 | 78 | 1017.0 |
| 20260503025840 | 3 | 26 | 0.0 | 0.0 | 0.00 | 0.00 | 0.00 | 79 | 1017.0 |
| 20260503025331 | 3 | 26 | 0.0 | 0.0 | 0.00 | 0.00 | 0.00 | 79 | 1017.0 |
| 20260503024839 | 3 | 26 | 0.0 | 1.6 | 0.00 | 0.00 | 0.00 | 78 | 1017.0 |
| 20260503024331 | 3 | 26 | 0.0 | 1.6 | 0.00 | 0.00 | 0.00 | 78 | 1017.0 |
| 20260503023839 | 4 | 26 | 1.6 | 3.2 | 0.00 | 0.00 | 0.00 | 76 | 1017.1 |
| 20260503023329 | 4 | 26 | 3.2 | 3.2 | 0.00 | 0.00 | 0.00 | 72 | 1017.1 |
| 20260503022836 | 4 | 26 | 0.0 | 0.0 | 0.00 | 0.00 | 0.00 | 70 | 1017.1 |
| 20260503022349 | 4 | 26 | 0.0 | 0.0 | 0.00 | 0.00 | 0.00 | 72 | 1017.1 |
| 20260503021857 | 5 | 26 | 0.0 | 3.2 | 0.00 | 0.00 | 0.00 | 72 | 1017.1 |
| 20260503021330 | 5 | 26 | 1.6 | 3.2 | 0.00 | 0.00 | 0.00 | 70 | 1016.9 |
| 20260503020837 | 5 | 26 | 1.6 | 3.2 | 0.00 | 0.00 | 0.00 | 66 | 1016.9 |
| 20260503020330 | 5 | 26 | 0.0 | 0.0 | 0.00 | 0.00 | 0.00 | 65 | 1017.0 |
| 20260503015830 | 5 | 26 | 0.0 | 0.0 | 0.00 | 0.00 | 0.00 | 63 | 1016.9 |
| 20260503015338 | 5 | 26 | 0.0 | 0.0 | 0.00 | 0.00 | 0.00 | 61 | 1016.8 |
| 20260503014839 | 6 | 26 | 0.0 | 0.0 | 0.00 | 0.00 | 0.00 | 59 | 1016.8 |
| 20260503014352 | 6 | 26 | 0.0 | 0.0 | 0.00 | 0.00 | 0.00 | 58 | 1016.7 |
| 20260503013831 | 6 | 26 | 0.0 | 0.0 | 0.00 | 0.00 | 0.00 | 56 | 1016.8 |
| 20260503013347 | 6 | 26 | 0.0 | 0.0 | 0.00 | 0.00 | 0.00 | 56 | 1016.9 |
| 20260503012827 | 6 | 26 | 0.0 | 0.0 | 0.00 | 0.00 | 0.00 | 55 | 1016.8 |
| 20260503012352 | 7 | 26 | 0.0 | 0.0 | 0.00 | 0.00 | 0.00 | 55 | 1016.8 |
| 20260503011827 | 7 | 26 | 0.0 | 0.0 | 0.00 | 0.00 | 0.00 | 55 | 1016.8 |
| 20260503011339 | 7 | 26 | 0.0 | 0.0 | 0.00 | 0.00 | 0.00 | 56 | 1016.8 |
| 20260503010854 | 7 | 26 | 0.0 | 0.0 | 0.00 | 0.00 | 0.00 | 56 | 1016.7 |
| 20260503010346 | 8 | 26 | 0.0 | 0.0 | 0.00 | 0.00 | 0.00 | 52 | 1016.8 |
| 20260503005837 | 8 | 26 | 0.0 | 0.0 | 0.00 | 0.00 | 0.00 | 54 | 1016.8 |
| 20260503005329 | 8 | 26 | 0.0 | 4.8 | 0.00 | 0.00 | 0.00 | 52 | 1016.7 |
| 20260503004836 | 8 | 26 | 1.6 | 4.8 | 0.00 | 0.00 | 0.00 | 50 | 1016.7 |
| 20260503004326 | 8 | 26 | 1.6 | 4.8 | 0.00 | 0.00 | 0.00 | 51 | 1016.8 |
| 20260503003831 | 9 | 23 | 1.6 | 6.4 | 0.00 | 0.00 | 0.00 | 49 | 1016.7 |
| 20260503003324 | 9 | 23 | 3.2 | 6.4 | 0.00 | 0.00 | 0.00 | 49 | 1016.7 |
| 20260503002832 | 9 | 23 | 3.2 | 9.7 | 0.00 | 0.00 | 0.00 | 48 | 1016.5 |
| 20260503002324 | 10 | 23 | 1.6 | 9.7 | 0.00 | 0.00 | 0.00 | 47 | 1016.5 |
| 20260503001832 | 10 | 313 | 3.2 | 8.0 | 0.00 | 0.00 | 0.00 | 46 | 1016.5 |
| 20260503001345 | 10 | 83 | 4.8 | 9.7 | 0.00 | 0.00 | 0.00 | 46 | 1016.5 |
| 20260503000832 | 10 | 23 | 3.2 | 12.9 | 0.00 | 0.00 | 0.00 | 46 | 1016.5 |
| 20260503000339 | 10 | 355 | 6.4 | 12.9 | 0.00 | 0.00 | 0.00 | 44 | 1016.5 |
| 20260502235839 | 10 | 19 | 4.8 | 9.7 | 0.00 | 0.00 | 0.00 | 44 | 1016.5 |
| 20260502235329 | 10 | 5 | 4.8 | 12.9 | 0.00 | 0.00 | 0.00 | 44 | 1016.5 |
| 20260502234838 | 10 | 355 | 6.4 | 12.9 | 0.00 | 0.00 | 0.00 | 44 | 1016.4 |
| 20260502234330 | 10 | 42 | 4.8 | 16.1 | 0.00 | 0.00 | 0.00 | 45 | 1016.5 |
| 20260502233838 | 10 | 11 | 6.4 | 16.1 | 0.00 | 0.00 | 0.00 | 44 | 1016.5 |
| 20260502233351 | 10 | 338 | 8.0 | 14.5 | 0.00 | 0.00 | 0.00 | 43 | 1016.4 |
| 20260502232904 | 10 | 27 | 6.4 | 14.5 | 0.00 | 0.00 | 0.00 | 43 | 1016.4 |
| 20260502232351 | 10 | 16 | 3.2 | 16.1 | 0.00 | 0.00 | 0.00 | 44 | 1016.4 |
| 20260502231840 | 10 | 28 | 6.4 | 16.1 | 0.00 | 0.00 | 0.00 | 43 | 1016.5 |
| 20260502231333 | 10 | 350 | 6.4 | 17.7 | 0.00 | 0.00 | 0.00 | 43 | 1016.5 |
| 20260502230842 | 10 | 327 | 6.4 | 17.7 | 0.00 | 0.00 | 0.00 | 43 | 1016.4 |
| 20260502230335 | 10 | 48 | 6.4 | 17.7 | 0.00 | 0.00 | 0.00 | 44 | 1016.5 |
| 20260502225834 | 10 | 21 | 8.0 | 17.7 | 0.00 | 0.00 | 0.00 | 44 | 1016.5 |
| 20260502225347 | 10 | 324 | 6.4 | 14.5 | 0.00 | 0.00 | 0.00 | 44 | 1016.5 |
| 20260502224827 | 10 | 42 | 4.8 | 14.5 | 0.00 | 0.00 | 0.00 | 43 | 1016.5 |
| 20260502224353 | 10 | 342 | 6.4 | 17.7 | 0.00 | 0.00 | 0.00 | 43 | 1016.4 |
| 20260502223839 | 10 | 331 | 6.4 | 17.7 | 0.00 | 0.00 | 0.00 | 44 | 1016.4 |
| 20260502223331 | 10 | 355 | 6.4 | 17.7 | 0.00 | 0.00 | 0.00 | 44 | 1016.4 |
| 20260502222839 | 11 | 339 | 8.0 | 14.5 | 0.00 | 0.00 | 0.00 | 43 | 1016.5 |
| 20260502222331 | 10 | 15 | 4.8 | 14.5 | 0.00 | 0.00 | 0.00 | 43 | 1016.5 |
| 20260502221840 | 11 | 32 | 6.4 | 16.1 | 0.00 | 0.00 | 0.00 | 43 | 1016.5 |
| 20260502221352 | 11 | 355 | 6.4 | 22.5 | 0.00 | 0.00 | 0.00 | 44 | 1016.5 |
| 20260502220853 | 11 | 44 | 6.4 | 22.5 | 0.00 | 0.00 | 0.00 | 45 | 1016.4 |
| 20260502220347 | 10 | 30 | 4.8 | 9.7 | 0.00 | 0.00 | 0.00 | 46 | 1016.5 |
| 20260502215837 | 10 | 32 | 3.2 | 12.9 | 0.00 | 0.00 | 0.00 | 46 | 1016.5 |
| 20260502215348 | 10 | 15 | 3.2 | 14.5 | 0.00 | 0.00 | 0.00 | 46 | 1016.5 |
| 20260502214855 | 10 | 345 | 6.4 | 14.5 | 0.00 | 0.00 | 0.00 | 47 | 1016.5 |
| 20260502214346 | 10 | 41 | 4.8 | 12.9 | 0.00 | 0.00 | 0.00 | 46 | 1016.5 |
| 20260502213826 | 10 | 47 | 6.4 | 16.1 | 0.00 | 0.00 | 0.00 | 46 | 1016.5 |
| 20260502213334 | 10 | 32 | 4.8 | 16.1 | 0.00 | 0.00 | 0.00 | 47 | 1016.5 |
| 20260502212851 | 10 | 9 | 8.0 | 16.1 | 0.00 | 0.00 | 0.00 | 45 | 1016.5 |
| 20260502212324 | 10 | 22 | 8.0 | 16.1 | 0.00 | 0.00 | 0.00 | 47 | 1016.5 |
| 20260502211853 | 11 | 88 | 3.2 | 17.7 | 0.00 | 0.00 | 0.00 | 46 | 1016.4 |
| 20260502211324 | 11 | 36 | 4.8 | 17.7 | 0.00 | 0.00 | 0.00 | 49 | 1016.5 |
| 20260502210832 | 10 | 86 | 4.8 | 17.7 | 0.00 | 0.00 | 0.00 | 47 | 1016.5 |
| 20260502210325 | 10 | 13 | 9.7 | 17.7 | 0.00 | 0.00 | 0.00 | 47 | 1016.5 |
| 20260502205839 | 10 | 9 | 9.7 | 22.5 | 0.00 | 0.00 | 0.00 | 46 | 1016.5 |
| 20260502205350 | 10 | 329 | 11.3 | 25.7 | 0.00 | 0.00 | 0.00 | 44 | 1016.5 |
| 20260502204836 | 11 | 346 | 12.9 | 20.9 | 0.00 | 0.00 | 0.00 | 45 | 1016.5 |
| 20260502204349 | 11 | 39 | 8.0 | 14.5 | 0.00 | 0.00 | 0.00 | 48 | 1016.5 |
| 20260502203855 | 10 | 317 | 6.4 | 19.3 | 0.00 | 0.00 | 0.00 | 48 | 1016.6 |
| 20260502203345 | 10 | 16 | 8.0 | 14.5 | 0.00 | 0.00 | 0.00 | 50 | 1016.6 |
| 20260502202840 | 10 | 21 | 4.8 | 8.0 | 0.00 | 0.00 | 0.00 | 48 | 1016.7 |
| 20260502202332 | 9 | 334 | 4.8 | 14.5 | 0.00 | 0.00 | 0.00 | 49 | 1016.9 |
| 20260502201839 | 10 | 42 | 3.2 | 16.1 | 0.00 | 0.00 | 0.00 | 50 | 1017.0 |
| 20260502201331 | 10 | 31 | 8.0 | 16.1 | 0.00 | 0.00 | 0.00 | 48 | 1017.0 |
| 20260502200837 | 10 | 89 | 8.0 | 19.3 | 0.00 | 0.00 | 0.00 | 49 | 1017.0 |
| 20260502200349 | 10 | 343 | 8.0 | 19.3 | 0.00 | 0.00 | 0.00 | 49 | 1017.0 |
| 20260502195839 | 10 | 27 | 8.0 | 16.1 | 0.00 | 0.00 | 0.00 | 49 | 1017.1 |
| 20260502195347 | 10 | 52 | 4.8 | 24.1 | 0.00 | 0.00 | 0.00 | 49 | 1017.2 |
| 20260502194900 | 10 | 85 | 4.8 | 25.7 | 0.00 | 0.00 | 0.00 | 53 | 1017.3 |
| 20260502194330 | 9 | 302 | 8.0 | 16.1 | 0.00 | 0.00 | 0.00 | 52 | 1017.4 |
| 20260502193839 | 9 | 26 | 8.0 | 16.1 | 0.00 | 0.00 | 0.00 | 50 | 1017.5 |
| 20260502193331 | 9 | 16 | 6.4 | 16.1 | 0.00 | 0.00 | 0.00 | 52 | 1017.6 |
| 20260502192839 | 9 | 38 | 4.8 | 14.5 | 0.00 | 0.00 | 0.00 | 51 | 1017.6 |
| 20260502192333 | 9 | 325 | 6.4 | 20.9 | 0.00 | 0.00 | 0.00 | 52 | 1017.5 |
| 20260502191841 | 10 | 355 | 6.4 | 20.9 | 0.00 | 0.00 | 0.00 | 48 | 1017.6 |
| 20260502191350 | 10 | 36 | 11.3 | 20.9 | 0.00 | 0.00 | 0.00 | 50 | 1017.5 |
| 20260502190836 | 9 | 40 | 8.0 | 19.3 | 0.00 | 0.00 | 0.00 | 50 | 1017.6 |
| 20260502190349 | 8 | 330 | 8.0 | 19.3 | 0.00 | 0.00 | 0.00 | 53 | 1017.6 |